Showing default

SHIYAN 6 (SY-6), 43711

Orbit data source: Space-Track

SHIYAN 6 (SY-6), 43711 is a payload satellite owned by CNSA (CN) in SSO that was launched on Mon, 19 Nov 2018 UTC via a CHANG ZHENG 2D launch vehicle from the Jiuquan Satellite Launch Center, China (JSC). Payload-class satellites include a variety of spacecraft equipped with specific instruments for various scientific and technological missions. These include communications satellites like Starlink; space stations such as the ISS; scientific satellites like the Hubble; Earth observation satellites from companies like Planet Labs, Umbra, and HawkEye 360; GPS; miniature CubeSats for education and research; and military/defense satellites.

Loading next visibility...
Identifier
43711, 2018-094B
Orbit
SSO
Country
Flag of CNCN / PRC
Related business
Manufacturer
DFH Shenzhen
Mission
Operational Defense Technology
Bus & Motor
SW6, AOCS
Mass
~1,000 kg wet, ~900 kg dry
Launch date (UTC)
2018-11-19 (7 years ago)
Launch vehicle
CHANG ZHENG 2D
Launch site
Jiuquan Satellite Launch Center, China (JSC)
Object type
Payload
Rocket body
Debris
Shape & HBR
Box + 2 Pan, 2.0 m
Radar Cross Section
3.315 m², Large (>1 m²)

Expand to show TLE details & history
Last TLE update: 6 hours ago

TLE from 6 hours ago
0 SHIYAN 6 (SY-6)
1 43711U 18094B   25292.01574075  .00009745  00000-0  37481-3 0  9998
2 43711  97.3728 303.8382 0011877 286.0311  73.9619 15.26541265384654
Epoch: 2025-10-19T00:22Z
TLE epoch observation values (Epoch: 2025-10-19T00:22:40.000Z)
Latitude
-0.00009°
Longitude
-89.56692°
Altitude
487.017 km
Speed
7.623 km/s
True Right ascension
20h 15m 21s
True Declination
0° 00' 00"
Sunlit
Object was in daylight at epoch
Visualization orbit readout
Latitude
Unknown
Longitude
Unknown
Altitude
Unknown
Speed
Unknown
Apparent Right ascension
Unknown
Apparent Declination
Unknown
Sunlit
N/A
Visualization observer readout
Local Sidereal Time
00:55:20
Azimuth
Unknown
Elevation
Unknown
Doppler factor
Unknown
Orbital elements
Apogee altitude
491.266 km
Perigee altitude
474.968 km
Semi-major axis
6,861.254 km
Eccentricity
0.00119
Inclination
97.3728°
RAAN
303.8382°
Arg. of periapsis
286.0311°
True anomaly
74.09276°
Mean anomaly
73.9619°
Eccentric anomaly
74.02732°
Mean motion
3.8189 °/min
Orbital period
94.27 mins
BSTAR
0.00037481
Loading maneuver chart data...
Computing Atmospheric mass density...
Loading historical data...
Loading historical data...
Loading historical data...
Loading historical data...
Loading historical data...
Loading historical data...
Loading historical data...

Documentation

Showing up to 5 results
|